Location: Unspecified
(0.0000°N, 0.0000°E)
Time: 16:31:52
(UTC+02:00)

Iridium 76 - Visible Passes

Search period start: 27 March 2017 00:00
Search period end: 06 April 2017 00:00
Orbit: 776 x 779 km, 86.4° (Epoch: 25 March)

Date Brightness Start Highest point End Pass type
(mag) Time Alt. Az. Time Alt. Az. Time Alt. Az.
27 Mar 7.7 21:35:28 10° NW 21:39:44 26° W 21:44:01 10° SW visible
28 Mar 6.2 21:01:11 10° NNW 21:06:16 58° W 21:11:24 10° SSW visible
29 Mar 5.5 20:27:41 10° N 20:32:49 63° E 20:37:59 10° S visible
30 Mar 8.5 21:36:41 10° NW 21:39:48 16° W 21:42:54 10° SW visible
31 Mar 7.3 21:01:38 10° NNW 21:06:20 35° W 21:11:04 10° SSW visible
01 Apr 5.7 20:27:41 10° N 20:32:53 80° W 20:38:06 10° S visible
02 Apr 8.7 07:22:52 10° SE 07:26:01 16° E 07:29:09 10° NE visible
03 Apr 8.2 21:02:28 10° NW 21:06:24 22° W 21:10:22 10° SW visible
04 Apr 6.7 20:27:57 10° NNW 20:32:56 48° W 20:37:59 10° SSW visible
05 Apr 8.1 07:21:47 10° SE 07:26:05 26° E 07:30:22 10° NE visible
